Flag for U.S.A. Weather past 2 weeks in Lynchburg, Virginia, U.S.A.

Now
45 °F

Fog.


Feels Like: 44 °F
Forecast: 36 / 58 °F
Wind: 3 mph from North

Location: Lynchburg Regional Airport

Current Time: Mar 4, 2015 at 8:03:53 AM

Latest Report: Mar 4, 2015 at 6:54 AM


Visibility: 4 mi

Pressure: 29.90 "Hg

Humidity: 100%

Dew point: 45 °F

Location of LynchburgLocation

Historic Weather in Lynchburg — Graph

°F

Lynchburg temperature yesterday

Maximum temperature yesterday: 36 °F (at 3:54 PM)
Minimum temperature yesterday: 31 °F (at 1:54 AM)
Average temperature yesterday: 34 °F

Past Weeks' High & Low Weather Summary

 TemperatureHumidityPressure
High52 °F (Mar 2, 2:54 PM)100% (Feb 21, 9:54 PM)30.84 "Hg (Feb 21, 9:54 PM)
Low-9 °F (Feb 20, 6:54 AM)24% (Mar 2, 4:54 PM)29.74 "Hg (Feb 18, 1:54 PM)
Average26 °F65%30.22 "Hg
* Reported Feb 17 6:54 AM — Mar 4 6:54 AM, Lynchburg, Weather by CustomWeather, © 2015

Note: Actual official high and low records may vary slightly from our data, if they occured in-between our weather recording intervals... More about our weather records

Advertising

Lynchburg weather history for previous 24 hours

 ConditionsComfort  
Time TempWeatherWind HumidityBarometerVisibility
6:54 AM
Wed, Mar 4
45 °FFog.3 mph100%29.90 "Hg4 mi
5:54 AM43 °FFog.6 mph100%29.90 "Hg4 mi
4:54 AM41 °FFog.7 mph100%29.89 "Hg5 mi
3:54 AM40 °FFog.6 mph100%29.89 "Hg5 mi
2:54 AM39 °FFog.8 mph100%29.91 "Hg5 mi
1:54 AM38 °FFog.7 mph97%29.95 "Hg4 mi
12:54 AM37 °FFog.9 mph96%29.95 "Hg5 mi
11:54 PM
Tue, Mar 3
36 °FLight rain. Fog.7 mph100%29.99 "Hg4 mi
10:54 PM36 °FLight rain. Fog.10 mph97%30.02 "Hg4 mi
9:54 PM35 °FLow clouds.8 mph92%30.05 "Hg8 mi
8:54 PM34 °FLow clouds.8 mph97%30.08 "Hg10 mi
7:54 PM33 °FLow clouds.8 mph92%30.09 "Hg10 mi
6:54 PM34 °FMostly cloudy.8 mph88%30.11 "Hg10 mi
5:54 PM34 °FLight rain. Overcast.5 mph82%30.14 "Hg10 mi
4:54 PM35 °FOvercast.8 mph75%30.17 "Hg10 mi
3:54 PM36 °FOvercast.8 mph62%30.19 "Hg10 mi
2:54 PM35 °FOvercast.9 mph67%30.22 "Hg10 mi
1:54 PM35 °FOvercast.6 mph56%30.25 "Hg10 mi
12:54 PM34 °FOvercast.9 mph54%30.32 "Hg10 mi
11:54 AM34 °FOvercast.7 mph52%30.36 "Hg10 mi
10:54 AM33 °FOvercast.6 mph52%30.38 "Hg10 mi
9:54 AM32 °FOvercast.7 mph56%30.41 "Hg10 mi
8:54 AM32 °FOvercast.3 mph56%30.43 "Hg10 mi
Weather by CustomWeather, © 2015

See weather overviewHow to use our weather pages